GW4252 Weather Reports


time (UTC)temp
C
wind
direction
speed
KPH
gust
KPH
rain 1hr
cm
rain 24hr
cm
rain mn
cm
humidity
%
barometer
mb
20260506161209 16 276 6.4 17.7 0.00 0.00 0.00 56 1009.8
20260506160709 16 206 11.3 14.5 0.00 0.00 0.00 57 1009.8
20260506160209 16 184 4.8 17.7 0.00 0.00 0.00 57 1009.9
20260506155208 16 227 4.8 16.1 0.00 0.00 0.00 55 1009.9
20260506154709 16 200 4.8 12.9 0.00 0.00 0.00 54 1010.0
20260506153708 16 232 4.8 14.5 0.00 0.00 0.00 54 1010.1
20260506153209 16 199 11.3 16.1 0.00 0.00 0.00 54 1010.2
20260506152708 17 187 16.1 16.1 0.00 0.00 0.00 54 1010.2
20260506152209 17 180 3.2 14.5 0.00 0.00 0.00 54 1010.3
20260506151209 17 184 9.7 19.3 0.00 0.00 0.00 54 1010.2
20260506150709 17 221 4.8 22.5 0.00 0.00 0.00 54 1010.2
20260506145709 16 211 4.8 16.1 0.00 0.00 0.00 55 1010.0
20260506145210 16 215 8.0 14.5 0.00 0.00 0.00 54 1010.0
20260506144210 16 186 11.3 17.7 0.00 0.00 0.00 54 1010.1
20260506143709 16 231 4.8 12.9 0.00 0.00 0.00 55 1010.0
20260506143209 16 183 8.0 12.9 0.00 0.00 0.00 54 1010.0
20260506142710 16 205 3.2 16.1 0.00 0.00 0.00 54 1010.1
20260506141710 17 206 4.8 16.1 0.00 0.00 0.00 54 1010.2
20260506140709 17 215 12.9 17.7 0.00 0.00 0.00 52 1010.3
20260506140209 17 158 1.6 14.5 0.00 0.00 0.00 52 1010.4
20260506135709 17 239 1.6 14.5 0.00 0.00 0.00 52 1010.3
20260506135208 17 198 6.4 17.7 0.00 0.00 0.00 52 1010.1
20260506134709 17 188 4.8 17.7 0.00 0.00 0.00 53 1010.4
20260506134209 16 205 6.4 16.1 0.00 0.00 0.00 52 1010.5
20260506133709 16 182 8.0 16.1 0.00 0.00 0.00 52 1010.5
20260506133209 16 211 8.0 20.9 0.00 0.00 0.00 52 1010.6
20260506132708 16 231 4.8 20.9 0.00 0.00 0.00 52 1010.4
20260506131709 16 186 14.5 20.9 0.00 0.00 0.00 52 1010.1
20260506131208 16 233 11.3 20.9 0.00 0.00 0.00 52 1010.2
20260506130709 16 201 9.7 19.3 0.00 0.00 0.00 53 1010.1
20260506130210 16 202 8.0 17.7 0.00 0.00 0.00 52 1010.1
20260506125709 16 203 17.7 19.3 0.00 0.00 0.00 52 1010.1
20260506125209 16 181 12.9 20.9 0.00 0.00 0.00 52 1010.2
20260506124709 16 193 4.8 16.1 0.00 0.00 0.00 52 1010.3
20260506124212 16 202 6.4 16.1 0.00 0.00 0.00 52 1010.3
20260506123209 16 210 8.0 16.1 0.00 0.00 0.00 52 1010.4
20260506122708 16 257 1.6 16.1 0.00 0.00 0.00 51 1010.6
20260506122208 16 217 4.8 17.7 0.00 0.00 0.00 51 1010.7
20260506121709 16 211 11.3 17.7 0.00 0.00 0.00 52 1010.9
20260506121209 15 215 1.6 16.1 0.00 0.00 0.00 52 1011.0
20260506120708 15 184 12.9 14.5 0.00 0.00 0.00 52 1010.8
20260506115709 15 223 12.9 12.9 0.00 0.00 0.00 52 1010.9
20260506115210 15 274 1.6 11.3 0.00 0.00 0.00 53 1010.8
20260506114710 15 217 0.0 11.3 0.00 0.00 0.00 53 1010.8
20260506114210 15 207 3.2 11.3 0.00 0.00 0.00 53 1010.9
20260506113709 15 213 0.0 8.0 0.00 0.00 0.00 54 1010.7
20260506113209 14 233 0.0 8.0 0.00 0.00 0.00 55 1010.7
20260506112209 14 196 8.0 9.7 0.00 0.00 0.00 56 1010.9
20260506111709 14 198 0.0 6.4 0.00 0.00 0.00 56 1010.9
20260506111210 13 197 1.6 4.8 0.00 0.00 0.00 57 1011.0
20260506110710 13 195 3.2 4.8 0.00 0.00 0.00 57 1011.1
20260506110209 13 194 4.8 9.7 0.00 0.00 0.00 57 1011.0
20260506105209 13 220 3.2 9.7 0.00 0.00 0.00 58 1011.0
20260506104710 13 210 4.8 8.0 0.00 0.00 0.00 58 1011.0
20260506104209 13 216 4.8 9.7 0.00 0.00 0.00 58 1011.0
20260506103210 12 205 6.4 12.9 0.00 0.00 0.00 58 1011.0
20260506102709 12 199 3.2 8.0 0.00 0.00 0.00 58 1011.0
20260506102210 12 213 3.2 8.0 0.00 0.00 0.00 57 1010.9
20260506101709 12 234 6.4 8.0 0.00 0.00 0.00 57 1010.9
20260506101210 12 211 3.2 6.4 0.00 0.00 0.00 57 1010.9
20260506100210 12 209 1.6 8.0 0.00 0.00 0.00 57 1011.0
20260506095708 12 206 1.6 8.0 0.00 0.00 0.00 57 1010.9
20260506095209 12 234 6.4 6.4 0.00 0.00 0.00 57 1010.8
20260506094709 12 238 4.8 8.0 0.00 0.00 0.00 57 1010.7
20260506094209 12 219 3.2 8.0 0.00 0.00 0.00 57 1010.7
20260506093708 12 198 6.4 8.0 0.00 0.00 0.00 57 1010.7
20260506093209 12 219 1.6 6.4 0.00 0.00 0.00 57 1010.9
20260506092709 12 216 3.2 9.7 0.00 0.00 0.00 57 1010.8
20260506092208 12 211 3.2 16.1 0.00 0.00 0.00 57 1010.9
20260506091708 12 213 3.2 16.1 0.00 0.00 0.00 57 1010.7
20260506091208 12 163 9.7 12.9 0.00 0.00 0.00 57 1010.7
20260506090708 12 197 11.3 12.9 0.00 0.00 0.00 57 1010.9
20260506090208 12 229 6.4 16.1 0.00 0.00 0.00 57 1011.0
20260506085707 12 208 12.9 12.9 0.00 0.00 0.00 57 1011.0
20260506084709 12 205 3.2 11.3 0.00 0.00 0.00 57 1011.0
20260506084208 12 230 0.0 11.3 0.00 0.00 0.00 57 1011.0
20260506083709 12 211 4.8 11.3 0.00 0.00 0.00 57 1011.0
20260506083208 12 209 0.0 11.3 0.00 0.00 0.00 57 1011.1
20260506082708 12 218 3.2 12.9 0.00 0.00 0.00 57 1011.1
20260506082208 12 221 12.9 12.9 0.00 0.00 0.00 57 1011.1
20260506081709 12 205 1.6 12.9 0.00 0.00 0.00 57 1011.1
20260506081207 12 176 4.8 12.9 0.00 0.00 0.00 57 1011.2
20260506080708 12 211 4.8 16.1 0.00 0.00 0.00 57 1011.2
20260506073209 13 208 1.6 11.3 0.00 0.00 0.00 57 1011.2
20260506072709 13 202 8.0 9.7 0.00 0.00 0.00 57 1011.3
20260506072208 13 200 8.0 12.9 0.00 0.00 0.00 57 1011.4
20260506071708 13 246 6.4 12.9 0.00 0.00 0.00 57 1011.5
20260506071208 13 217 6.4 14.5 0.00 0.00 0.00 57 1011.4
20260506070210 13 171 3.2 11.3 0.00 0.00 0.00 57 1011.4
20260506061209 13 215 4.8 11.3 0.00 0.00 0.00 59 1011.3
20260506060708 13 213 8.0 12.9 0.00 0.00 0.00 59 1011.2
20260506060210 13 216 3.2 9.7 0.00 0.00 0.00 59 1011.3
20260506051209 14 173 4.8 14.5 0.00 0.00 0.00 59 1011.5
20260506050708 14 211 3.2 16.1 0.00 0.00 0.00 59 1011.4
20260506050211 14 265 12.9 16.1 0.00 0.00 0.00 59 1011.5
20260506044711 14 223 6.4 17.7 0.00 0.00 0.00 59 1011.7
20260506044211 14 225 4.8 12.9 0.00 0.00 0.00 59 1011.7
20260506043710 14 194 1.6 12.9 0.00 0.00 0.00 59 1011.7
20260506043211 15 230 9.7 19.3 0.00 0.00 0.00 59 1011.6
20260506042709 15 236 4.8 19.3 0.00 0.00 0.00 59 1011.5
20260506041711 15 215 4.8 16.1 0.00 0.00 0.00 58 1011.5
20260506041210 15 212 1.6 17.7 0.00 0.00 0.00 58 1011.5
20260506040709 15 202 8.0 19.3 0.00 0.00 0.00 58 1011.5
20260506040215 15 266 4.8 19.3 0.00 0.00 0.00 58 1011.5
20260506035210 15 183 3.2 16.1 0.00 0.00 0.00 58 1011.5
20260506034710 15 224 4.8 14.5 0.00 0.00 0.00 57 1011.6
20260506034209 15 211 8.0 16.1 0.00 0.00 0.00 57 1011.6
20260506033710 15 226 1.6 14.5 0.00 0.00 0.00 57 1011.5
20260506033210 15 213 12.9 12.9 0.00 0.00 0.00 57 1011.5
20260506032710 15 227 6.4 14.5 0.00 0.00 0.00 56 1011.5
20260506032210 15 198 0.0 16.1 0.00 0.00 0.00 56 1011.4
20260506031710 15 248 11.3 17.7 0.00 0.00 0.00 56 1011.4
20260506031210 15 202 12.9 17.7 0.00 0.00 0.00 56 1011.3
20260506030710 15 205 12.9 16.1 0.00 0.00 0.00 56 1011.4
20260506030212 15 190 9.7 14.5 0.00 0.00 0.00 55 1011.5
20260506025210 16 230 6.4 14.5 0.00 0.00 0.00 55 1011.4
20260506024711 16 206 4.8 17.7 0.00 0.00 0.00 55 1011.5
20260506024210 16 218 4.8 17.7 0.00 0.00 0.00 55 1011.4
20260506023710 16 217 8.0 14.5 0.00 0.00 0.00 54 1011.4
20260506023211 16 267 3.2 16.1 0.00 0.00 0.00 54 1011.4
20260506022709 16 200 11.3 16.1 0.00 0.00 0.00 54 1011.3
20260506022210 16 233 8.0 17.7 0.00 0.00 0.00 54 1011.2
20260506021211 16 203 3.2 16.1 0.00 0.00 0.00 54 1011.3
20260506020711 16 270 4.8 24.1 0.00 0.00 0.00 54 1011.1
20260506020209 16 232 12.9 24.1 0.00 0.00 0.00 54 1011.1
20260506015709 16 219 11.3 16.1 0.00 0.00 0.00 54 1010.9
20260506015210 16 264 3.2 22.5 0.00 0.00 0.00 54 1010.9
20260506014708 16 209 14.5 20.9 0.00 0.00 0.00 54 1010.9
20260506014209 16 176 11.3 27.4 0.00 0.00 0.00 54 1010.8
20260506013708 16 225 8.0 20.9 0.00 0.00 0.00 54 1010.7
20260506013209 16 252 6.4 22.5 0.00 0.00 0.00 54 1010.7
20260506012709 16 205 4.8 16.1 0.00 0.00 0.00 54 1010.5
20260506012210 16 289 3.2 12.9 0.00 0.00 0.00 53 1010.6
20260506010709 16 232 8.0 17.7 0.00 0.00 0.00 53 1010.4
20260506010210 17 229 9.7 22.5 0.00 0.00 0.00 52 1010.2
20260506005709 17 201 9.7 22.5 0.00 0.00 0.00 52 1010.1
20260506005209 17 269 11.3 27.4 0.00 0.00 0.00 52 1010.0
20260506004709 17 283 14.5 27.4 0.00 0.00 0.00 52 1010.0
20260506003709 17 256 8.0 20.9 0.00 0.00 0.00 51 1009.9
20260506002709 17 241 17.7 27.4 0.00 0.00 0.00 52 1009.9
20260506002209 16 234 6.4 24.1 0.00 0.00 0.00 53 1009.9
20260506001709 16 271 9.7 16.1 0.00 0.00 0.00 53 1009.9
20260506001209 16 240 4.8 16.1 0.00 0.00 0.00 53 1009.9
20260506000709 16 212 4.8 12.9 0.00 0.00 0.00 53 1009.9
20260506000211 16 275 4.8 12.9 0.00 0.00 0.00 52 1009.8
20260505235710 17 253 6.4 12.9 0.00 0.00 0.00 51 1009.7
20260505235210 17 263 3.2 12.9 0.00 0.00 0.00 51 1009.7
20260505234709 17 257 6.4 17.7 0.00 0.00 0.00 50 1009.5
20260505234210 17 269 9.7 19.3 0.00 0.00 0.00 50 1009.4
20260505233709 17 228 3.2 22.5 0.00 0.00 0.00 49 1009.3
20260505233210 17 244 8.0 20.9 0.00 0.00 0.00 49 1009.2
20260505232710 17 163 3.2 27.4 0.00 0.00 0.00 49 1009.2
20260505232210 18 234 9.7 27.4 0.00 0.00 0.00 48 1009.3
20260505231210 18 249 6.4 35.4 0.00 0.00 0.00 47 1008.8
20260505230712 18 165 29.0 35.4 0.00 0.00 0.00 47 1008.8
20260505230212 18 191 17.7 35.4 0.00 0.00 0.00 47 1008.7
20260505225710 18 210 19.3 38.6 0.00 0.00 0.00 46 1008.6
20260505225210 19 191 11.3 43.5 0.00 0.00 0.00 46 1008.5
20260505224210 19 213 19.3 41.8 0.00 0.00 0.00 46 1008.4
20260505223211 19 190 19.3 37.0 0.00 0.00 0.00 46 1008.4
20260505222711 19 202 22.5 33.8 0.00 0.00 0.00 46 1008.5
20260505222210 19 242 16.1 35.4 0.00 0.00 0.00 46 1008.5
20260505221710 19 200 9.7 40.2 0.00 0.00 0.00 46 1008.5
20260505221209 19 217 22.5 38.6 0.00 0.00 0.00 46 1008.4
20260505220711 19 192 11.3 27.4 0.00 0.00 0.00 46 1008.4
20260505220213 19 202 16.1 25.7 0.00 0.00 0.00 47 1008.4
20260505215711 19 248 19.3 22.5 0.00 0.00 0.00 47 1008.4
20260505215210 19 185 6.4 20.9 0.00 0.00 0.00 47 1008.4
20260505214711 19 221 6.4 24.1 0.00 0.00 0.00 47 1008.4
20260505214211 19 169 3.2 24.1 0.00 0.00 0.00 47 1008.2
20260505213711 19 172 4.8 25.7 0.00 0.00 0.00 47 1008.4
20260505213209 19 205 16.1 29.0 0.00 0.00 0.00 47 1008.3
20260505212710 19 166 27.4 27.4 0.00 0.00 0.00 46 1008.4
20260505212210 20 182 25.7 27.4 0.00 0.00 0.00 46 1008.4
20260505211710 20 271 1.6 24.1 0.00 0.00 0.00 45 1008.4
20260505211210 20 247 4.8 19.3 0.00 0.00 0.00 46 1008.4
20260505210209 21 180 4.8 22.5 0.00 0.00 0.00 44 1008.4
20260505205710 21 207 1.6 19.3 0.00 0.00 0.00 44 1008.3
20260505205208 21 211 8.0 27.4 0.00 0.00 0.00 44 1008.4
20260505204709 21 239 6.4 27.4 0.00 0.00 0.00 44 1008.4
20260505204209 21 197 9.7 19.3 0.00 0.00 0.00 43 1008.5
20260505203709 21 248 11.3 19.3 0.00 0.00 0.00 43 1008.5
20260505203209 22 158 11.3 17.7 0.00 0.00 0.00 44 1008.6
20260505202709 22 222 6.4 17.7 0.00 0.00 0.00 43 1008.5
20260505202209 22 209 14.5 17.7 0.00 0.00 0.00 43 1008.6
20260505201709 22 236 6.4 22.5 0.00 0.00 0.00 44 1008.7
20260505201209 22 162 6.4 22.5 0.00 0.00 0.00 43 1008.7
20260505200710 21 238 6.4 16.1 0.00 0.00 0.00 44 1008.8
20260505200209 21 229 6.4 16.1 0.00 0.00 0.00 45 1008.8
20260505195709 21 242 9.7 25.7 0.00 0.00 0.00 45 1009.0
20260505195209 21 198 12.9 25.7 0.00 0.00 0.00 45 1008.9
20260505194709 21 207 20.9 20.9 0.00 0.00 0.00 45 1009.0
20260505194209 21 183 4.8 22.5 0.00 0.00 0.00 44 1009.1
20260505193709 21 202 8.0 24.1 0.00 0.00 0.00 44 1009.1
20260505193209 21 234 9.7 24.1 0.00 0.00 0.00 43 1009.3
20260505192709 21 240 3.2 17.7 0.00 0.00 0.00 46 1009.2
20260505192209 21 218 6.4 24.1 0.00 0.00 0.00 46 1009.1
20260505191709 21 263 4.8 24.1 0.00 0.00 0.00 45 1009.2
20260505191208 21 191 12.9 22.5 0.00 0.00 0.00 46 1009.3
20260505190709 21 175 12.9 22.5 0.00 0.00 0.00 45 1009.5
20260505190208 21 207 6.4 20.9 0.00 0.00 0.00 46 1009.5
20260505185709 21 187 11.3 22.5 0.00 0.00 0.00 44 1009.6
20260505185209 21 161 9.7 25.7 0.00 0.00 0.00 44 1009.6
20260505184708 21 209 9.7 25.7 0.00 0.00 0.00 45 1009.7
20260505183710 21 317 1.6 22.5 0.00 0.00 0.00 44 1009.8
20260505183208 21 185 6.4 22.5 0.00 0.00 0.00 45 1009.8
20260505182708 22 157 8.0 20.9 0.00 0.00 0.00 44 1009.8
20260505182208 22 186 9.7 20.9 0.00 0.00 0.00 45 1009.7
20260505181710 22 218 4.8 19.3 0.00 0.00 0.00 45 1009.7
20260505180709 22 202 3.2 25.7 0.00 0.00 0.00 44 1009.8
20260505180208 22 196 12.9 25.7 0.00 0.00 0.00 44 1010.0
20260505175709 22 188 4.8 24.1 0.00 0.00 0.00 43 1010.0
20260505175209 22 206 9.7 24.1 0.00 0.00 0.00 44 1010.0
20260505174209 23 165 8.0 20.9 0.00 0.00 0.00 41 1010.2
20260505173709 23 172 3.2 16.1 0.00 0.00 0.00 43 1010.2
20260505173209 23 215 6.4 14.5 0.00 0.00 0.00 40 1010.2
20260505172709 23 144 3.2 16.1 0.00 0.00 0.00 42 1010.3
20260505171709 23 183 6.4 16.1 0.00 0.00 0.00 39 1010.3
20260505171209 23 161 8.0 17.7 0.00 0.00 0.00 40 1010.3
20260505170708 23 168 1.6 17.7 0.00 0.00 0.00 40 1010.4
20260505170210 23 197 4.8 14.5 0.00 0.00 0.00 39 1010.5
20260505165709 23 221 9.7 14.5 0.00 0.00 0.00 39 1010.6
20260505165209 23 198 8.0 16.1 0.00 0.00 0.00 42 1010.6
20260505164209 22 230 9.7 16.1 0.00 0.00 0.00 42 1010.9
20260505163708 22 198 6.4 14.5 0.00 0.00 0.00 44 1010.9
20260505163209 22 180 1.6 14.5 0.00 0.00 0.00 45 1010.9
20260505162709 21 225 9.7 14.5 0.00 0.00 0.00 48 1011.0
20260505162209 21 197 8.0 9.7 0.00 0.00 0.00 48 1011.0
20260505161710 21 144 1.6 9.7 0.00 0.00 0.00 49 1011.0